Regional Weather Roundup
Issued by NWS

Home | Current Version | Previous Version | Graphics & Text | Print | Product List | Glossary On
Versions: 1 2 3 4 5 6 7 8 9 10 11 12 13 14 15 16 17 18 19 20 21 22 23 24 25 26 27 28 29 30 31 32 33 34 35 36 37 38 39 40 41 42 43 44 45 46 47 48 49 50
712
ASUS45 KBOU 202207
RWRCO

WEATHER ROUNDUP FOR COLORADO
NATIONAL WEATHER SERVICE DENVER/BOULDER CO
400 PM MDT THU JUL 20 2017

NOTE: "FAIR" INDICATES FEW OR NO CLOUDS BELOW 12000 FEET WITH NO
SIGNIFICANT WEATHER AND/OR OBSTRUCTIONS TO VISIBILITY.

COZ001>005-013-030-031-202300-
...NORTHWEST COLORADO...

CITY           SKY/WX    TMP DP  RH WIND       PRES   REMARKS
CRAIG          FAIR      86  45  23 W17       30.19F
HAYDEN         FAIR      84  46  26 NW10G16   30.21F
MEEKER         FAIR      81  60  48 SW7       30.22F
RABBIT EARS PA FAIR      70  48  46 NW7       30.57F
STEAMBOAT SPGS FAIR      85  49  28 W9G16     30.23F
WALDEN         FAIR      81  39  22 SW8       30.35F
$$

COZ006>008-011-202300-
...WEST CENTRAL VALLEYS...

CITY           SKY/WX    TMP DP  RH WIND       PRES   REMARKS
GRAND JUNCTION FAIR      95  47  19 W12G18    30.06F
MONTROSE       FAIR      78  52  40 SE10      30.21S
EAGLE          PTSUNNY   82  46  28 SW14      30.24R
RIFLE          FAIR      88  55  32 N6        30.12F
DELTA          LGT RAIN  83  49  30 SW15G26   30.15S
NUCLA          NOT AVBL
$$

COZ017>023-064>068-202300-
...SOUTHWEST COLORADO...

CITY           SKY/WX    TMP DP  RH WIND       PRES   REMARKS
DURANGO        FAIR      86  42  21 SW10      30.22F
CORTEZ         PTSUNNY   92  51  24 SW9       30.17F
PAGOSA SPRINGS FAIR      77  46  32 NE10      30.34F
TELLURIDE      CLOUDY    67  47  47 CALM      30.51R
WOLF CREEK PAS FAIR      52  43  71 N8        30.77F THUNDER
$$

COZ009-010-012-014-032>034-037-058>063-202300-
...CENTRAL COLORADO...

CITY           SKY/WX    TMP DP  RH WIND       PRES   REMARKS
ASPEN          FAIR      81  45  28 N10       30.33F
BUENA VISTA    CLOUDY    81  26  13 E7G14     30.32F
COPPER MTN     PTSUNNY   61  41  48 NW6       30.72F
BERTHOUD PASS  TSTM      43  28  56 S20G28    30.78R
COTTONWOOD PAS PTSUNNY   73  34  23 S9        30.50F THUNDER
GUNNISON       PTSUNNY   73  46  38 SW17G29   30.35R
KREMMLING      FAIR      90  37  15 CALM      30.27F
LEADVILLE      FAIR      62  44  51 N14       30.49F
MONARCH PASS   PTSUNNY   64  34  32 W20G25    30.79F
SALIDA         FAIR      91  21   7 S14G20    30.33F
SUNLIGHT       FAIR      63  43  48 N5        30.62F THUNDER
WILKERSON PASS FAIR      72  36  26 S8        30.66S
$$

COZ069>075-202300-
...SAN LUIS VALLEY/SANGRE DE CRISTO MOUNTAINS...

CITY           SKY/WX    TMP DP  RH WIND       PRES   REMARKS
ALAMOSA        FAIR      85  48  27 SW12      30.29F
DEL NORTE      FAIR      71  49  45 W26G33    30.37F THUNDER
LA VETA PASS   NOT AVBL
SAGUACHE         N/A    N/A N/A N/A MISG        N/A
$$

COZ035-036-038>040-202300-
...NORTHERN COLORADO FRONT RANGE...

CITY           SKY/WX    TMP DP  RH WIND       PRES   REMARKS
DENVER INTL AP PTSUNNY   90  48  23 N3        30.11F
DMNS CITY PARK   N/A     84  49  30 NW8G17    30.12F
AURORA         TSTM      88  50  27 NE3       30.14F
FRONT RANGE AP FAIR      91  50  24 E10       30.14F
ERIE MUNI ARPT LGT RAIN  83  54  36 S7        30.12F
BOULDER MUN AP FAIR      84  54  34 SW5       30.14F
CENTENNIAL     TSTM      84  53  34 W15G21    30.16S
BROOMFIELD     TSTM      79  54  41 CALM      30.17F
FORT COLLINS   FAIR      88  56  33 SW13      30.10F
LONGMONT       LGT RAIN  84  59  42 W5        30.13F
$$

COZ041-046-047-076>085-087-088-202300-
...PIKES PEAK/PALMER DIVIDE AND SOUTHERN FOOTHILLS...

CITY           SKY/WX    TMP DP  RH WIND       PRES   REMARKS
COLO. SPRINGS  FAIR      91  53  27 SW9       30.19F
A. F. ACADEMY  MOSUNNY   82  53  36 CALM      30.21F
SCHRIEVER AFB  FAIR      87  51  28 SE9       30.20F
CHEYENNE MTN   FAIR      84  47  27 SE13G18   30.21F
ELLICOTT       FAIR       0  32 100 VRB3      30.18F
FALCON           N/A     87  47  24 SE7G21    30.27F
FORT CARSON    FAIR      91  52  26 S12       30.16F
LIMON          FAIR      92  54  27 N3        30.12F
MONUMENT HILL  FAIR      81  50  34 S12G21    30.27F
CANON CITY     SUNNY     93  54  26 NE10G17   30.09F
WALSENBURG     FAIR      97  41  14 SE17      30.15F
TRINIDAD       FAIR      92  44  19 E9        30.15F
$$

COZ042>045-048>051-090-091-202300-
...NORTHEAST COLORADO...

CITY           SKY/WX    TMP DP  RH WIND       PRES   REMARKS
GREELEY ARPT   FAIR      95  52  23 SW7       30.07F
AKRON          FAIR      96  55  25 E9        30.07F
BURLINGTON     FAIR      95  61  32 VRB6      30.03F
WRAY           NOT AVBL
YUMA           FAIR      90  41  18 NE9       30.04F
STERLING       FAIR      91  61  35 NE10      30.03F
HOLYOKE        FAIR      95  59  30 E7        30.02F
FORT MORGAN    FAIR      95  52  23 SE12      30.06F
$$

COZ086-089-092>099-202300-
...SOUTHEAST COLORADO...

CITY           SKY/WX    TMP DP  RH WIND       PRES   REMARKS
PUEBLO         FAIR      98  51  20 SE10G22   30.05F
LA JUNTA       FAIR      95  57  27 E3        30.04F
LAMAR          FAIR      98  58  26 MISG      29.98F
SPRINGFIELD      N/A     95  54  25 S13G22    30.06F
$$




USA.gov is the U.S. government's official web portal to all federal, state and local government web resources and services.